[[{"header":{"parameterUnit":"m.s-1","parameterCategory":1,"la1":30.2991,"la2":30.254,"lo1":-89.0895,"lo2":-89.0444,"dy":0.0017,"dx":0.0017,"nx":28,"ny":28,"refTime":"2024-04-02T09:00:00:Z","depth":0,"parameterNumber":2,"parameterNumberName":"U-component_of_WINDS"},"data":[0,0,0,0,0,0,0,0,0,0,0,0,0,0,0,0,0,0,0,0,0,0,0,0,0,0,0,0,0,0,0,0,0,0,0,0,0,0,0,0,0,0,0,0,0,0,0,0,0,0,0,0,0,0,0,0,0,0,-1.5956,-1.5957,0,-1.5965,-1.5965,-1.5965,-1.5963,-1.5963,-1.5963,-1.5962,-1.5972,-1.5972,-1.5972,0,0,0,0,0,0,0,0,0,0,0,0,0,-1.5939,-1.5939,-1.5956,-1.5957,-1.5957,-1.5965,-1.5965,-1.5965,-1.5963,-1.5963,-1.5963,-1.5962,-1.5972,-1.5972,-1.5972,0,0,0,0,0,0,0,0,0,0,0,0,0,-1.5947,-1.5939,-1.5956,-1.5957,-1.5957,-1.5965,-1.5965,-1.5965,-1.5963,-1.5963,-1.5963,-1.5962,-1.5971,-1.5972,-1.5973,-1.5981,0,0,-1.5974,-1.5975,0,0,0,0,0,0,0,0,-1.5946,-1.5947,-1.5956,-1.5957,-1.5957,-1.5963,-1.5962,-1.5971,-1.5963,-1.5961,-1.5962,-1.5962,-1.5969,-1.597,-1.5972,-1.5982,-1.5982,-1.5974,-1.5975,-1.5975,-1.5975,0,0,0,0,0,0,0,-1.5946,-1.5947,-1.596,-1.5957,-1.5957,-1.5956,-1.5957,-1.5964,-1.5966,-1.5961,-1.5961,-1.5962,-1.5969,-1.5971,-1.5972,-1.5982,-1.5974,-1.5975,-1.5975,-1.5976,-1.5999,-1.5999,0,0,0,0,0,0,-1.5945,-1.5946,-1.596,-1.596,-1.5951,-1.5957,-1.5958,-1.5961,-1.5966,-1.5967,-1.5962,-1.5962,-1.597,-1.5971,-1.5972,-1.5982,-1.5975,-1.5976,-1.5976,-1.5999,-1.5999,-1.5999,0,0,0,0,0,0,-1.5945,-1.5946,-1.5959,-1.5953,-1.5955,-1.5957,-1.5961,-1.5961,-1.5964,-1.5967,-1.5967,-1.5964,-1.597,-1.5971,-1.5979,-1.5983,-1.5976,-1.5976,-1.5998,-1.5999,-1.5999,-1.6003,0,0,0,0,0,0,-1.5944,-1.5946,-1.5949,-1.5953,-1.5955,-1.5966,-1.5961,-1.5962,-1.5965,-1.5964,-1.5969,-1.5969,-1.597,-1.5978,-1.5979,-1.5983,-1.5977,-1.5998,-1.5999,-1.5999,-1.6002,-1.6003,-1.6004,0,0,0,0,0,-1.5943,-1.595,-1.5949,-1.5951,-1.5959,-1.5966,-1.5967,-1.5968,-1.5965,-1.5968,-1.597,-1.5969,-1.5982,-1.5979,-1.598,-1.5985,-1.5998,-1.5998,-1.5999,-1.6002,-1.6003,-1.6004,0,0,0,0,0,0,-1.5947,-1.5951,-1.595,-1.5958,-1.5962,-1.5965,-1.597,-1.5969,-1.5973,-1.5973,-1.5973,-1.5975,-1.5982,-1.5984,-1.598,-1.5993,-1.599,-1.5991,-1.5991,-1.5992,-1.5993,-1.5992,-1.5977,0,0,0,0,0,-1.5949,-1.5953,-1.5957,-1.5964,-1.5965,-1.5967,-1.597,-1.597,-1.5974,-1.5975,-1.5978,-1.5981,-1.5986,-1.5989,-1.5994,-1.6003,-1.6003,-1.6006,-1.6007,-1.6008,-1.6009,-1.6013,-1.6014,-1.6001,-1.6001,-1.6001,0,0,-1.5952,-1.5955,-1.5958,-1.5964,-1.5967,-1.5972,-1.5968,-1.5974,-1.5977,-1.5976,-1.5983,-1.5985,-1.5989,-1.5997,-1.6001,-1.5999,-1.6012,-1.6009,-1.6009,-1.6009,-1.6013,-1.6014,-1.6016,-1.6002,-1.6002,-1.6002,0,0,-1.5961,-1.5964,-1.597,-1.5972,-1.5976,-1.5977,-1.5979,-1.5982,-1.5984,-1.599,-1.5989,-1.5994,-1.6002,-1.6005,-1.6008,-1.6017,-1.6016,-1.6019,-1.6023,-1.6027,-1.6028,-1.6029,-1.6032,-1.6033,-1.6019,-1.602,-1.602,0,-1.5965,-1.5972,-1.5973,-1.5978,-1.5981,-1.598,-1.5985,-1.5988,-1.5993,-1.5995,-1.5993,-1.6003,-1.6006,-1.6014,-1.6017,-1.6019,-1.602,-1.6018,-1.6028,-1.6029,-1.6029,-1.6032,-1.6033,-1.602,-1.602,-1.602,-1.602,0,-1.5977,-1.5981,-1.5986,-1.599,-1.5994,-1.5999,-1.6,-1.6004,-1.6004,-1.6005,-1.6012,-1.6015,-1.602,-1.6022,-1.6022,-1.603,-1.6029,-1.6028,-1.6024,-1.6031,-1.6033,-1.6034,-1.602,-1.602,-1.602,-1.602,0,0,-1.5988,-1.5992,-1.5994,-1.5996,-1.6,-1.6004,-1.6009,-1.6014,-1.6016,-1.602,-1.6024,-1.6031,-1.603,-1.6033,-1.6033,-1.6037,-1.6043,-1.6035,-1.6035,-1.6036,-1.6052,-1.6052,-1.6054,-1.6043,-1.6043,-1.6043,-1.6051,0,-1.5996,-1.6006,-1.6006,-1.6014,-1.6019,-1.6018,-1.6022,-1.6025,-1.6027,-1.6031,-1.6032,-1.6037,-1.6035,-1.6036,-1.604,-1.6042,-1.6046,-1.6041,-1.6047,-1.6047,-1.6045,-1.6055,-1.6056,-1.6063,-1.6052,-1.6052,-1.6053,0,-1.6008,-1.6011,-1.602,-1.6023,-1.6025,-1.6029,-1.6033,-1.6037,-1.604,-1.6041,-1.6044,-1.6044,-1.6049,-1.6046,-1.6053,-1.605,-1.6052,-1.6053,-1.6053,-1.6054,-1.605,-1.6055,-1.6066,-1.6066,-1.6054,-1.6054,-1.6054,0,-1.6014,-1.6021,-1.6027,-1.6029,-1.6033,-1.6036,-1.6037,-1.604,-1.6043,-1.6047,-1.6048,-1.6053,-1.6055,-1.6059,-1.606,-1.6057,-1.6067,-1.6064,-1.6067,-1.6067,-1.6069,-1.6069,-1.6079,-1.6071,-1.6071,-1.6071,-1.6071,0,-1.6024,-1.6029,-1.603,-1.6034,-1.6039,-1.604,-1.6046,-1.6047,-1.605,-1.6054,-1.6053,-1.6057,-1.6058,-1.6062,-1.6063,-1.6069,-1.607,-1.6071,-1.6071,-1.607,-1.607,-1.6071,-1.6071,-1.6071,-1.6071,-1.6071,-1.6071,0,-1.6032,-1.6033,-1.6039,-1.6042,-1.6043,-1.6047,-1.6049,-1.6053,-1.6054,-1.6059,-1.606,-1.6062,-1.6067,-1.6068,-1.6074,-1.6074,-1.6081,-1.6081,-1.6079,-1.6079,-1.6083,-1.6082,-1.6094,-1.6096,-1.6087,-1.6087,-1.6087,0,-1.6037,-1.6041,-1.6044,-1.6047,-1.6048,-1.6052,-1.6055,-1.6056,-1.6058,-1.6062,-1.6065,-1.6069,-1.6073,-1.608,-1.6082,-1.6086,-1.6086,-1.609,-1.6087,-1.6086,-1.6086,-1.6085,-1.6085,-1.6091,-1.6091,-1.6091,-1.6091,0,-1.6047,-1.6047,-1.6051,-1.6054,-1.6057,-1.606,-1.6063,-1.6065,-1.6066,-1.6069,-1.6074,-1.6076,-1.6082,-1.6086,-1.609,-1.6092,-1.6092,-1.6092,-1.6093,-1.6092,-1.6091,-1.6091,-1.608,-1.6091,-1.6091,-1.6091,-1.6091,-1.6091,-1.6053,-1.6057,-1.6059,-1.6063,-1.6065,-1.6068,-1.6071,-1.6072,-1.6076,-1.608,-1.6081,-1.6085,-1.6088,-1.6094,-1.6096,-1.61,-1.6098,-1.61,-1.61,-1.6101,-1.61,-1.6091,-1.61,-1.61,-1.61,-1.61,-1.61,0,-1.6062,-1.6064,-1.6068,-1.6071,-1.6074,-1.6073,-1.6076,-1.6079,-1.6083,-1.6086,-1.6089,-1.6094,-1.6098,-1.61,-1.6104,-1.6107,-1.6107,-1.6108,-1.6107,-1.6108,-1.6102,-1.61,-1.6108,-1.6108,-1.6108,-1.6108,-1.6108,-1.6108,-1.6067,-1.6073,-1.6073,-1.6079,-1.6081,-1.6085,-1.6087,-1.6089,-1.6091,-1.6097,-1.61,-1.6101,-1.6104,-1.6108,-1.6112,-1.6112,-1.6114,-1.6115,-1.6115,-1.6109,-1.6108,-1.6108,-1.6106,-1.6115,-1.6115,-1.6121,-1.6121,-1.6121]},{"header":{"parameterUnit":"m.s-1","parameterCategory":1,"la1":30.2991,"la2":30.254,"lo1":-89.0895,"lo2":-89.0444,"dy":0.0017,"dx":0.0017,"nx":28,"ny":28,"refTime":"2024-04-02T09:00:00:Z","depth":0,"parameterNumber":3,"parameterNumberName":"V-component_of_WINDS"},"data":[0,0,0,0,0,0,0,0,0,0,0,0,0,0,0,0,0,0,0,0,0,0,0,0,0,0,0,0,0,0,0,0,0,0,0,0,0,0,0,0,0,0,0,0,0,0,0,0,0,0,0,0,0,0,0,0,0,0,1.8638,1.8639,0,1.8727,1.8729,1.873,1.8756,1.8755,1.8755,1.8754,1.8847,1.8849,1.8852,0,0,0,0,0,0,0,0,0,0,0,0,0,1.8492,1.8494,1.8638,1.8639,1.864,1.8727,1.8729,1.873,1.8756,1.8755,1.8755,1.8754,1.8846,1.8849,1.8853,0,0,0,0,0,0,0,0,0,0,0,0,0,1.8566,1.8495,1.8638,1.8664,1.8667,1.8727,1.8729,1.873,1.8756,1.8755,1.8754,1.8754,1.8845,1.8849,1.8853,1.8894,0,0,1.8866,1.8868,0,0,0,0,0,0,0,0,1.8562,1.8571,1.8659,1.8662,1.8666,1.873,1.8711,1.8785,1.8756,1.8722,1.8754,1.8753,1.8808,1.8816,1.8834,1.8898,1.8902,1.8867,1.8869,1.8871,1.8872,0,0,0,0,0,0,0,1.8556,1.8567,1.8673,1.866,1.8664,1.8672,1.8681,1.8725,1.8768,1.8725,1.8727,1.8737,1.881,1.883,1.8836,1.8904,1.8867,1.887,1.8873,1.8875,1.9009,1.901,0,0,0,0,0,0,1.8547,1.8563,1.8671,1.8676,1.8611,1.8675,1.8686,1.871,1.8768,1.8776,1.8738,1.8738,1.8823,1.8831,1.884,1.8894,1.8871,1.8875,1.8878,1.9008,1.901,1.9011,0,0,0,0,0,0,1.8543,1.8556,1.8667,1.862,1.8635,1.8678,1.8705,1.8712,1.8732,1.8777,1.8785,1.875,1.8822,1.8834,1.8881,1.8897,1.8877,1.8881,1.9007,1.9009,1.901,1.9001,0,0,0,0,0,0,1.8539,1.8555,1.857,1.862,1.8637,1.8706,1.8706,1.8714,1.8739,1.874,1.8791,1.8798,1.8823,1.8874,1.8885,1.8903,1.8885,1.9006,1.9008,1.901,1.9,1.9001,1.9003,0,0,0,0,0,1.8534,1.8563,1.8571,1.8584,1.8657,1.8707,1.8717,1.8744,1.874,1.8757,1.8786,1.8797,1.8893,1.8879,1.8892,1.8911,1.9005,1.9007,1.9009,1.8999,1.9001,1.9003,0,0,0,0,0,0,1.8514,1.857,1.8579,1.8626,1.8661,1.8711,1.8733,1.8745,1.8782,1.8782,1.8814,1.8826,1.8871,1.8895,1.8878,1.8955,1.895,1.8954,1.8937,1.894,1.8941,1.8935,1.8888,0,0,0,0,0,1.8515,1.855,1.8597,1.8634,1.8652,1.8689,1.8712,1.873,1.8768,1.8783,1.8816,1.8853,1.8892,1.8917,1.8955,1.9003,1.9016,1.9022,1.9024,1.9025,1.9029,1.9059,1.9063,1.9018,1.9018,1.9018,0,0,1.8517,1.8553,1.8573,1.8631,1.8661,1.8697,1.8702,1.8739,1.8767,1.8789,1.8836,1.8862,1.8906,1.8954,1.8977,1.8976,1.9045,1.9028,1.9029,1.9032,1.9062,1.9066,1.907,1.9019,1.9019,1.9019,0,0,1.8541,1.857,1.8605,1.8635,1.868,1.8705,1.8713,1.8762,1.878,1.8828,1.8846,1.8879,1.8945,1.8976,1.9001,1.9038,1.905,1.9049,1.9059,1.9087,1.9091,1.9094,1.911,1.9114,1.9053,1.9053,1.9053,0,1.8538,1.8594,1.8621,1.8659,1.8685,1.8707,1.8743,1.8771,1.8826,1.8844,1.8842,1.8926,1.8957,1.9014,1.9024,1.9042,1.9054,1.9044,1.9088,1.9092,1.9095,1.911,1.9116,1.9053,1.9053,1.9053,1.9053,0,1.8589,1.8628,1.865,1.8704,1.8733,1.8769,1.8804,1.8829,1.8845,1.8871,1.8921,1.8958,1.9006,1.902,1.9035,1.908,1.9078,1.9081,1.9077,1.9099,1.9114,1.912,1.9053,1.9053,1.9053,1.9053,0,0,1.8603,1.8672,1.868,1.8706,1.8758,1.8788,1.8827,1.8873,1.8896,1.8933,1.8968,1.9023,1.9027,1.9055,1.9074,1.9099,1.9129,1.91,1.9101,1.9105,1.9183,1.9182,1.9188,1.9137,1.9138,1.9139,1.918,0,1.8634,1.8704,1.8731,1.8788,1.8825,1.8846,1.888,1.8916,1.8942,1.8977,1.9005,1.9045,1.9046,1.9064,1.9089,1.912,1.9145,1.9117,1.917,1.9172,1.916,1.9195,1.9193,1.923,1.9186,1.9187,1.9188,0,1.868,1.8719,1.878,1.883,1.8846,1.8876,1.8922,1.8955,1.8997,1.9014,1.9046,1.9064,1.9107,1.9099,1.9159,1.914,1.9163,1.9182,1.9184,1.9191,1.9182,1.9205,1.9243,1.9249,1.9196,1.9196,1.9195,0,1.8686,1.8754,1.88,1.882,1.8879,1.89,1.8925,1.8967,1.8994,1.9034,1.9052,1.9096,1.9121,1.9155,1.9186,1.9177,1.9244,1.9238,1.9261,1.926,1.9275,1.9274,1.9319,1.9287,1.9287,1.9287,1.9286,0,1.872,1.8757,1.8803,1.8832,1.8874,1.8905,1.8947,1.8974,1.9011,1.9046,1.9067,1.9099,1.9136,1.9174,1.9198,1.9245,1.9256,1.9272,1.9278,1.9271,1.9269,1.9288,1.9287,1.9288,1.9288,1.9288,1.9287,0,1.8734,1.8766,1.8818,1.887,1.8884,1.8913,1.8958,1.8987,1.9013,1.9057,1.9069,1.9111,1.9157,1.919,1.9249,1.9265,1.9317,1.9322,1.9302,1.9306,1.9327,1.9325,1.9387,1.9398,1.9357,1.9357,1.9357,0,1.8754,1.8783,1.8838,1.8863,1.8888,1.8928,1.8956,1.8988,1.9016,1.9068,1.9091,1.9138,1.9177,1.9249,1.9286,1.9331,1.9339,1.9357,1.9346,1.9339,1.9342,1.9341,1.9345,1.9359,1.936,1.936,1.936,0,1.8786,1.8801,1.8841,1.8886,1.8919,1.8956,1.8994,1.9014,1.9053,1.9084,1.9131,1.9161,1.9222,1.9269,1.9319,1.9346,1.9361,1.9363,1.9371,1.9365,1.9354,1.9363,1.9309,1.9362,1.9362,1.9362,1.9362,1.9362,1.8805,1.8833,1.8877,1.8921,1.8952,1.8988,1.9018,1.9049,1.9089,1.9141,1.9157,1.9207,1.925,1.9318,1.9346,1.9386,1.9386,1.9396,1.94,1.9402,1.9403,1.9346,1.9395,1.9395,1.9395,1.9395,1.9395,0,1.8841,1.887,1.891,1.8963,1.8998,1.9008,1.9051,1.9079,1.9123,1.9162,1.9201,1.9256,1.9302,1.9342,1.9391,1.9415,1.9423,1.9427,1.9426,1.9433,1.9399,1.9389,1.942,1.942,1.942,1.942,1.942,1.942,1.8863,1.8912,1.8932,1.8997,1.9027,1.9075,1.9099,1.9133,1.9164,1.9225,1.9264,1.929,1.933,1.9382,1.9426,1.9436,1.9454,1.9457,1.9469,1.9438,1.9435,1.9432,1.9422,1.946,1.946,1.95,1.95,1.9501]}]]